カタログに戻る

STARLINK-31027

運用中通信VLEO
NORAD 58720·PAYLOAD·🇺🇸 United States

打ち上げ Jan 3, 2024 から Vandenberg Space Force Base

Loading…

次のパス (今後24時間)

TLE

最新Source: CelesTrak SupGP

元期: Sep 14, 2026, 14:07 UTC

1 58720C 24002R   26257.58868056  .00483310  00000+0  79643-3 0  2575
2 58720  53.1293  12.3829 0010534 316.2907 125.7171 16.02049363    12

AllMySatでSTARLINK-31027をリアルタイム追跡

Download on the App Store